Temperature
10 10 9 10 11 12 12 12 12 14 14 13 12 13 13 14 14 14 14 13 13 13 12 11 11 11 11 10 10 11 11 11 11 11 11 11 11 11 11 11 11 11 11 11
10 9 11 12 12 12 12 11 12 13 13 13 12 13 13 13 13 14 14 13 13 12 12 11 11 11 10 10 10 10 10 10 10 11 11 11 11 11 11 11 11 11 11 11
10 11 12 12 11 12 12 11 11 12 12 12 12 11 12 14 14 14 14 13 13 12 12 11 10 10 10 10 10 10 10 10 10 10 10 10 10 10 10 10 10 10 10 10
10 11 12 11 11 11 11 12 12 11 10 10 11 9 12 13 13 13 13 13 13 12 12 11 10 10 10 10 10 10 10 10 10 10 10 10 10 10 10 10 10 10 10 10
10 11 11 11 11 11 11 12 11 11 10 9 11 10 11 13 12 12 13 13 13 12 12 11 10 10 10 10 10 10 10 10 10 10 10 10 9 10 9 9 9 9 9 9
10 11 11 11 11 11 11 11 10 10 9 8 10 10 11 12 13 13 13 13 12 12 11 11 10 10 10 9 10 10 10 9 10 10 9 9 9 9 9 9 9 9 9 9
9 10 10 10 10 10 10 8 8 8 8 9 11 11 11 14 14 14 13 13 12 12 11 10 10 10 9 9 9 9 9 9 9 9 9 9 9 9 9 9 9 9 9 8
8 8 9 9 9 9 9 9 8 8 9 10 11 10 12 13 13 13 13 13 12 11 11 10 10 10 9 9 9 9 9 9 9 9 9 8 8 8 8 8 8 8 8 8
8 8 10 9 10 9 9 8 10 9 9 9 10 12 12 12 12 12 12 12 12 11 10 10 10 9 9 9 9 9 9 9 9 8 8 8 8 8 8 8 8 8 8 8
7 7 9 9 9 9 9 9 8 8 8 9 11 11 11 11 11 11 11 11 11 11 10 10 9 9 9 9 9 9 8 8 8 8 8 8 8 8 8 7 7 7 7 7
7 6 7 7 7 7 7 8 8 8 9 9 10 11 12 11 11 11 10 11 11 10 10 9 9 9 9 9 8 8 8 8 8 7 7 7 7 7 7 7 7 7 7 7
6 5 5 7 8 8 8 8 8 7 8 9 9 10 11 11 11 10 10 10 10 9 9 9 8 8 8 8 7 7 7 7 7 7 7 7 7 7 7 7 6 6 6 6
5 4 5 6 6 7 7 8 8 8 7 7 8 9 10 10 10 10 10 10 9 9 8 8 8 7 7 7 7 7 7 7 7 7 7 7 7 7 7 6 6 6 6 6
5 4 4 5 6 6 6 7 7 7 6 7 8 9 9 9 9 9 9 9 9 8 8 7 7 7 7 7 6 6 6 6 6 6 6 6 6 6 6 6 6 6 6 5
4 3 4 5 6 6 6 6 7 6 6 6 8 8 8 8 8 9 9 8 8 8 7 7 6 6 6 6 6 6 6 6 6 6 6 6 6 6 5 5 5 5 5 5
3 3 3 4 5 6 6 6 7 7 7 7 8 8 9 8 8 8 8 8 7 7 7 7 6 6 6 6 6 6 5 5 5 5 5 5 5 5 5 5 5 5 5 5
2 2 2 3 4 4 4 5 6 6 7 7 7 7 7 7 7 7 7 7 6 6 6 6 6 6 5 5 5 5 5 5 5 5 5 5 5 5 5 5 4 4 4 4
2 2 2 2 3 3 5 6 6 6 6 7 7 7 6 6 7 7 6 6 6 5 5 5 5 5 5 5 5 5 5 4 4 4 4 4 4 4 4 4 4 4 4 4
3 2 2 2 3 3 5 5 5 5 5 5 6 6 5 5 5 5 5 5 5 5 4 4 4 4 4 4 4 4 4 4 4 4 4 4 4 3 3 3 3 3 3 3
2 2 2 2 2 3 4 4 5 5 4 4 5 4 4 4 3 3 4 4 4 4 4 3 4 4 4 4 4 4 3 3 3 3 3 3 3 3 3 3 3 2 2 2
1 1 1 1 2 3 3 3 4 3 3 3 4 4 3 3 3 3 2 2 2 2 2 2 3 3 3 3 3 3 3 3 3 2 2 2 2 2 2 2 2 2 2 2
0 1 1 1 1 1 2 2 2 2 2 3 3 3 2 2 2 1 1 1 1 1 1 1 2 2 2 2 2 2 2 2 2 2 2 2 2 2 2 2 2 1 1 1
1 1 1 1 1 1 1 1 1 1 1 1 1 1 1 1 0 -0 -0 -0 0 0 1 1 1 1 1 1 1 1 1 1 1 1 2 1 1 1 1 1 1 1 1 0
0 1 1 0 0 0 0 0 0 1 1 1 0 0 0 -0 -1 -1 -1 -1 -1 -1 -0 -0 0 0 0 0 0 1 0 0 1 1 1 1 1 1 0 0 0 0 -0 -0
-0 -0 -0 -0 -0 -0 -0 -0 -0 -0 -0 -0 -0 -1 -1 -1 -1 -2 -2 -2 -2 -1 -1 -1 -1 -1 -1 -1 -1 -0 -0 0 0 0 0 0 0 -0 -0 -0 -0 -1 -1 -1
-1 -1 -1 -1 -1 -1 -1 -1 -1 -1 -1 -1 -1 -2 -2 -2 -2 -2 -2 -2 -2 -2 -1 -1 -1 -1 -1 -1 -1 -1 -1 -1 -1 -0 -0 -1 -1 -1 -1 -1 -1 -1 -2 -2
Wind_Speed
9 8 12 13 14 11 9 10 10 8 4 7 11 11 9 8 7 7 7 8 8 7 6 6 6 6 6 6 7 7 7 6 6 5 5 4 4 4 3 4 7 8 7 6
8 15 15 11 11 13 14 13 11 7 4 6 9 12 10 10 9 9 8 8 8 7 7 6 6 6 7 7 7 8 8 8 7 5 4 4 4 3 4 4 6 7 7 6
16 9 11 14 13 14 15 13 10 8 5 6 7 9 10 10 9 7 8 8 8 9 8 8 7 7 7 7 8 8 9 8 7 7 5 5 4 4 3 4 3 5 7 6
14 13 10 12 13 13 12 8 8 8 5 5 6 6 7 8 9 9 9 9 9 9 9 8 8 8 8 7 7 7 8 9 8 8 7 7 5 5 4 4 4 4 6 6
8 9 12 14 12 11 8 4 7 7 7 7 7 6 6 7 8 10 10 9 9 9 9 8 7 8 7 7 7 7 7 8 8 8 8 7 5 4 4 5 5 5 4 5
11 7 8 9 7 8 4 2 4 4 3 7 10 8 6 6 10 10 10 9 9 8 8 9 8 8 7 7 7 7 8 8 8 8 8 7 7 6 7 6 6 5 4 4
9 10 7 4 5 8 7 5 3 4 5 8 7 7 7 4 6 8 10 10 9 8 8 8 8 8 8 8 8 8 9 8 7 8 8 8 7 7 7 6 6 6 4 3
7 8 10 7 7 7 11 9 6 5 5 4 6 8 5 3 3 4 6 9 9 9 8 8 7 8 8 9 9 8 9 8 8 8 7 7 7 6 4 5 5 5 4 4
5 6 6 9 6 6 8 9 5 3 4 4 5 5 3 4 4 5 6 8 9 9 8 8 7 7 8 8 8 8 9 9 9 8 7 7 7 6 5 5 4 4 4 4
4 4 4 5 4 6 5 5 4 5 4 5 6 8 6 7 7 7 7 7 8 8 7 7 7 7 7 7 7 7 8 9 9 8 8 7 7 6 6 5 5 5 4 4
4 4 3 5 9 9 7 6 6 5 5 4 4 3 1 7 8 9 7 7 7 8 7 6 6 6 6 6 7 7 7 7 7 8 7 7 7 6 6 6 6 5 5 5
3 3 4 7 5 5 7 7 7 5 6 5 3 3 4 4 6 7 7 7 6 7 7 6 6 6 6 6 6 6 7 7 7 7 7 7 6 6 6 5 5 5 5 5
2 2 3 3 3 4 5 7 8 6 3 5 5 4 2 5 7 7 7 6 6 7 6 6 5 5 6 6 6 6 7 7 6 6 6 6 6 6 6 5 5 5 5 4
3 4 6 7 3 3 6 8 9 7 5 6 8 5 3 1 3 4 5 6 6 6 6 5 4 4 5 5 6 6 6 6 6 6 6 6 6 6 5 5 5 5 5 5
2 5 8 11 10 8 9 11 12 12 11 8 8 7 6 4 2 2 3 4 5 5 5 5 4 4 4 5 5 5 5 5 6 6 6 5 5 5 4 4 4 4 4 4
3 4 6 9 10 9 10 12 15 15 14 12 10 9 2 2 1 1 2 3 4 4 4 4 4 4 4 5 5 5 5 5 5 6 5 5 5 5 4 4 4 4 4 4
4 4 4 6 6 6 9 10 12 11 10 9 11 7 2 2 3 3 3 4 3 3 3 4 4 4 3 4 5 5 5 5 5 5 5 5 5 4 4 4 4 4 4 4
6 6 4 4 4 8 5 2 5 8 7 7 5 3 3 2 1 1 3 3 3 2 2 2 3 2 3 3 4 5 5 5 5 5 5 5 5 4 4 4 4 4 3 3
7 6 4 4 5 7 3 2 2 4 5 3 3 1 1 2 2 2 4 3 3 3 3 2 2 2 3 3 4 5 5 4 4 4 4 4 4 4 4 4 4 3 3 3
3 4 4 4 4 5 2 4 4 1 4 2 1 2 2 3 2 1 3 4 4 4 4 3 3 3 3 3 4 5 4 4 4 4 3 3 3 4 4 4 3 2 3 3
1 2 4 5 4 3 4 6 3 2 3 4 1 2 2 1 1 3 4 4 4 5 5 4 4 4 3 3 4 4 4 3 3 3 3 3 3 3 3 3 3 2 2 2
1 1 2 2 3 3 6 4 2 2 4 4 4 3 4 6 6 6 5 4 5 5 5 5 4 4 4 4 4 4 3 2 3 3 3 2 2 2 2 3 2 2 2 2
1 1 1 1 1 3 4 4 5 5 4 5 5 6 7 7 7 6 6 5 5 5 5 4 4 4 4 4 4 3 2 2 2 3 2 1 1 1 2 2 2 2 2 2
3 3 1 1 2 4 5 6 6 6 6 7 7 7 7 7 7 7 6 5 5 5 5 5 5 4 4 3 3 2 2 2 2 2 1 1 1 1 1 1 2 2 3 3
3 3 2 1 2 4 6 7 6 7 7 8 8 7 7 7 7 6 5 5 5 5 5 5 4 4 3 3 3 2 2 2 2 1 1 1 0 1 1 1 1 2 3 4
4 3 2 2 3 3 4 6 7 7 7 6 7 7 6 6 6 5 5 4 4 4 4 4 4 4 4 3 3 3 2 2 1 1 1 0 0 1 1 1 2 3 3 6
Wind_Direction
196 213 217 215 217 235 253 254 255 258 232 225 233 244 245 228 224 217 204 193 193 187 184 169 167 163 157 157 154 152 149 147 139 138 137 135 136 127 120 122 122 121 119 115
207 224 225 224 224 233 244 256 264 271 238 234 248 254 247 228 218 208 202 193 184 175 174 172 165 161 160 162 160 157 154 151 149 146 140 136 135 127 122 117 115 121 120 117
218 221 214 224 229 231 236 239 252 264 285 269 268 266 242 229 215 204 199 185 177 177 178 177 171 161 158 164 165 163 157 155 150 141 130 122 112 107 107 117 127 126 126 122
234 228 219 221 226 225 238 232 248 259 263 254 226 262 245 215 198 203 200 189 181 180 174 173 168 162 163 167 161 156 157 155 149 143 141 143 149 148 151 143 143 132 128 125
233 214 220 224 222 219 236 240 244 246 247 262 241 249 260 208 201 205 196 188 178 174 170 167 167 162 158 157 158 156 151 151 151 148 147 147 150 141 134 134 141 137 129 126
246 238 225 231 223 217 221 221 241 241 239 248 227 223 259 212 205 195 186 182 175 169 167 163 162 154 151 152 154 154 154 155 155 150 150 150 150 145 142 148 153 148 139 127
235 231 211 202 216 201 189 169 186 207 218 236 210 213 242 217 182 185 179 175 170 168 166 161 159 158 159 157 159 158 156 155 156 154 153 152 149 147 152 157 158 152 148 149
223 229 201 192 202 195 196 189 188 202 216 230 203 216 231 162 127 133 153 157 159 159 158 160 160 159 160 162 164 164 164 159 156 157 151 149 146 149 152 155 158 155 157 158
242 230 178 188 198 197 193 210 228 262 272 247 222 213 209 134 133 137 146 148 155 155 155 156 155 154 156 162 166 168 164 158 158 159 148 147 147 147 150 156 152 148 148 146
287 269 209 180 187 229 224 202 196 209 219 238 225 212 206 179 181 168 163 155 150 144 145 147 149 151 153 157 156 156 157 157 156 157 154 155 155 153 151 151 148 147 147 146
282 262 209 175 199 200 195 206 209 207 232 223 237 234 186 170 172 167 160 148 145 145 146 142 142 141 143 143 146 149 151 148 150 153 154 154 156 155 152 154 154 154 155 159
242 255 246 224 216 207 206 202 195 196 230 231 253 265 18 80 112 128 132 126 125 128 131 133 134 134 135 140 143 147 147 149 152 152 151 151 152 148 147 154 157 156 160 168
243 236 260 233 203 206 223 224 225 239 247 234 231 242 11 76 97 105 113 121 125 123 120 120 123 134 141 142 145 148 147 146 145 144 146 146 148 147 150 152 153 155 160 168
254 232 229 236 259 233 232 229 225 221 228 244 237 234 252 115 114 121 127 130 129 127 126 126 131 140 144 142 142 142 141 139 138 139 145 151 154 155 157 155 157 166 169 172
244 244 252 269 278 261 247 234 224 223 226 232 253 254 235 219 189 155 138 134 133 132 131 137 145 146 146 140 137 135 136 137 137 141 146 152 148 145 146 152 161 169 172 175
244 257 267 270 271 267 258 242 231 231 232 241 257 267 266 156 126 129 143 150 145 141 143 142 140 139 144 146 141 138 141 141 141 146 151 147 145 145 152 159 164 170 174 175
225 230 252 266 281 288 259 242 229 227 227 227 240 247 189 177 190 197 180 158 146 134 144 147 145 142 143 148 144 143 145 140 144 148 147 147 148 154 163 165 168 180 183 178
227 227 234 261 263 242 246 273 241 232 234 229 234 210 183 184 185 140 130 129 129 125 118 116 122 118 121 128 128 127 131 138 145 147 149 151 153 161 167 167 177 188 184 184
228 222 229 235 247 264 268 297 260 227 248 251 236 236 73 86 69 47 60 79 94 90 91 91 98 110 114 119 125 121 124 129 135 142 146 152 157 163 168 174 184 188 183 191
240 231 228 229 237 250 299 332 327 240 250 315 215 155 122 109 169 200 57 63 74 74 75 74 80 92 97 102 113 117 121 128 141 141 139 147 158 168 178 182 186 186 185 192
238 230 231 243 246 270 349 334 353 162 273 340 23 139 158 252 167 126 91 70 74 77 71 66 74 82 84 87 101 109 115 130 135 128 134 150 164 175 182 178 176 175 182 193
215 222 223 235 248 276 358 12 18 340 354 17 49 70 79 84 95 94 87 78 71 71 70 66 73 70 64 78 97 101 106 108 109 123 136 152 168 175 166 166 170 176 180 199
226 245 260 224 256 6 15 15 1 7 24 35 53 72 84 91 91 85 76 68 66 68 66 66 76 69 58 66 88 100 100 101 107 116 127 145 155 165 169 172 178 189 198 208
339 338 329 355 25 20 25 27 27 34 45 48 58 71 85 88 87 81 74 65 58 60 67 67 67 68 59 56 69 87 87 90 100 110 119 135 143 164 175 194 197 203 215 221
326 335 340 339 2 23 27 25 31 42 48 53 56 63 76 84 81 79 74 67 61 60 63 63 65 66 58 51 50 55 57 75 83 95 100 80 101 204 222 245 243 240 241 234
10 9 11 3 6 19 11 16 30 47 50 56 69 64 58 73 80 73 67 63 63 59 56 54 50 51 47 43 40 39 40 59 73 64 46 21 321 273 255 266 310 308 275 274
Height
1471 1473 1470 1467 1468 1467 1466 1465 1464 1460 1458 1461 1460 1458 1456 1455 1455 1456 1457 1459 1462 1464 1466 1468 1470 1472 1473 1474 1476 1479 1481 1484 1486 1488 1491 1494 1497 1500 1502 1506 1508 1511 1514 1516
1467 1465 1460 1462 1463 1464 1464 1465 1463 1458 1456 1459 1458 1455 1451 1449 1450 1451 1453 1455 1458 1461 1463 1465 1467 1468 1470 1471 1474 1477 1479 1482 1484 1487 1489 1493 1495 1499 1501 1504 1507 1510 1512 1515
1458 1454 1456 1458 1459 1460 1460 1462 1462 1462 1459 1457 1459 1455 1448 1443 1444 1446 1449 1451 1454 1457 1459 1461 1464 1465 1467 1469 1471 1473 1476 1479 1482 1485 1488 1491 1494 1497 1499 1502 1505 1508 1510 1513
1452 1450 1452 1453 1454 1455 1457 1455 1458 1460 1465 1465 1459 1464 1444 1438 1439 1441 1444 1446 1449 1453 1456 1458 1461 1462 1464 1466 1468 1471 1474 1477 1480 1483 1486 1489 1491 1494 1497 1500 1503 1506 1509 1511
1446 1445 1447 1448 1448 1451 1453 1453 1456 1458 1462 1464 1457 1459 1446 1434 1437 1437 1439 1441 1445 1448 1451 1454 1457 1459 1461 1464 1466 1469 1472 1475 1478 1481 1484 1486 1489 1492 1495 1498 1502 1504 1506 1509
1443 1442 1444 1444 1445 1448 1451 1455 1456 1458 1462 1466 1453 1455 1445 1433 1430 1431 1434 1437 1441 1445 1448 1451 1455 1457 1459 1461 1464 1467 1469 1472 1475 1478 1481 1484 1487 1490 1493 1496 1499 1501 1504 1506
1442 1440 1440 1443 1446 1447 1451 1458 1465 1466 1466 1457 1441 1444 1437 1422 1421 1423 1428 1432 1436 1441 1445 1448 1451 1454 1456 1458 1461 1464 1466 1469 1472 1475 1478 1482 1485 1488 1491 1494 1496 1498 1501 1503
1442 1441 1437 1439 1442 1444 1446 1450 1457 1459 1455 1447 1437 1439 1429 1419 1419 1421 1424 1428 1433 1438 1441 1445 1448 1450 1453 1455 1457 1460 1463 1466 1469 1473 1476 1480 1483 1486 1489 1492 1494 1496 1499 1501
1439 1435 1431 1434 1437 1440 1443 1446 1442 1448 1444 1444 1436 1426 1422 1419 1420 1421 1424 1427 1431 1435 1439 1442 1445 1448 1450 1453 1455 1458 1460 1464 1467 1471 1473 1477 1481 1484 1486 1489 1491 1494 1496 1498
1439 1437 1431 1432 1436 1437 1439 1439 1446 1449 1448 1441 1429 1425 1425 1421 1422 1422 1424 1427 1430 1434 1437 1440 1443 1446 1448 1451 1453 1456 1459 1462 1465 1469 1472 1475 1479 1482 1484 1487 1489 1491 1493 1495
1441 1442 1435 1434 1435 1436 1439 1440 1439 1441 1439 1439 1433 1427 1411 1413 1415 1419 1422 1425 1429 1433 1436 1439 1442 1444 1447 1449 1452 1454 1457 1460 1464 1467 1470 1474 1476 1479 1482 1484 1486 1488 1491 1492
1441 1442 1439 1433 1429 1429 1431 1432 1436 1442 1438 1432 1432 1429 1413 1413 1414 1417 1422 1426 1429 1432 1435 1438 1441 1443 1445 1448 1450 1453 1456 1459 1462 1465 1468 1471 1474 1476 1479 1481 1483 1485 1488 1490
1441 1443 1441 1434 1435 1433 1432 1430 1432 1433 1435 1435 1434 1429 1416 1415 1417 1420 1423 1427 1430 1432 1435 1437 1440 1442 1444 1446 1449 1451 1454 1457 1460 1463 1466 1468 1471 1473 1476 1478 1480 1483 1484 1486
1439 1440 1440 1434 1429 1431 1431 1430 1430 1435 1439 1434 1427 1424 1422 1420 1421 1422 1425 1427 1430 1432 1435 1437 1439 1441 1443 1445 1447 1449 1452 1455 1457 1460 1463 1465 1468 1470 1473 1475 1477 1479 1481 1483
1438 1438 1434 1429 1426 1427 1426 1425 1426 1429 1430 1432 1423 1421 1420 1420 1422 1423 1425 1427 1430 1432 1434 1436 1438 1440 1442 1444 1445 1448 1450 1453 1455 1457 1460 1462 1465 1467 1470 1472 1474 1476 1477 1479
1437 1437 1434 1430 1424 1423 1423 1421 1421 1421 1422 1421 1420 1419 1417 1419 1421 1423 1425 1427 1429 1431 1433 1435 1437 1439 1440 1442 1443 1446 1448 1450 1453 1455 1458 1460 1462 1465 1466 1468 1470 1472 1473 1475
1436 1436 1436 1431 1425 1423 1423 1416 1416 1415 1414 1417 1419 1418 1418 1420 1421 1422 1424 1426 1428 1430 1432 1434 1435 1437 1438 1440 1442 1444 1446 1449 1451 1453 1455 1458 1460 1461 1463 1465 1466 1468 1469 1471
1433 1434 1434 1431 1429 1429 1415 1410 1410 1410 1411 1412 1413 1414 1415 1417 1419 1422 1424 1425 1427 1429 1431 1432 1433 1435 1436 1438 1440 1442 1444 1446 1448 1451 1453 1455 1456 1458 1460 1461 1463 1464 1465 1467
1427 1429 1430 1429 1426 1418 1412 1410 1410 1411 1411 1411 1412 1413 1415 1417 1419 1422 1423 1425 1426 1427 1429 1430 1431 1433 1434 1436 1438 1440 1442 1444 1446 1448 1450 1452 1453 1455 1456 1457 1459 1460 1462 1463
1424 1425 1428 1426 1424 1420 1414 1411 1408 1410 1412 1410 1410 1412 1414 1415 1421 1423 1424 1424 1425 1426 1427 1428 1429 1431 1432 1434 1436 1438 1440 1442 1444 1445 1447 1449 1451 1452 1453 1454 1455 1457 1458 1459
1427 1427 1427 1425 1423 1418 1417 1413 1410 1416 1415 1411 1410 1411 1413 1414 1417 1421 1423 1424 1424 1425 1426 1427 1428 1429 1431 1433 1434 1436 1438 1440 1442 1443 1445 1447 1448 1449 1450 1451 1452 1453 1454 1454
1427 1427 1426 1424 1425 1425 1419 1416 1417 1417 1414 1412 1410 1412 1413 1415 1417 1419 1422 1423 1424 1424 1426 1427 1427 1429 1430 1432 1434 1435 1437 1438 1440 1441 1442 1444 1445 1446 1447 1448 1448 1449 1450 1450
1426 1426 1424 1425 1427 1425 1422 1420 1419 1417 1415 1414 1413 1414 1415 1417 1418 1420 1422 1423 1424 1425 1425 1427 1427 1428 1430 1431 1433 1434 1436 1437 1438 1439 1440 1441 1442 1443 1444 1444 1445 1445 1446 1446
1426 1425 1424 1425 1425 1424 1423 1421 1420 1419 1418 1417 1416 1417 1418 1419 1420 1422 1423 1424 1425 1425 1426 1427 1428 1428 1430 1431 1432 1433 1434 1435 1436 1437 1438 1438 1439 1440 1441 1441 1441 1442 1442 1442
1429 1427 1427 1427 1426 1425 1424 1424 1422 1421 1420 1419 1419 1420 1420 1421 1422 1423 1424 1425 1426 1426 1427 1428 1428 1428 1429 1430 1431 1432 1433 1434 1434 1435 1435 1436 1437 1437 1437 1438 1438 1438 1438 1439
1432 1431 1431 1430 1429 1429 1428 1426 1424 1423 1422 1422 1422 1423 1424 1423 1424 1425 1426 1427 1427 1428 1428 1429 1429 1429 1430 1430 1431 1431 1432 1432 1432 1432 1433 1433 1434 1434 1434 1434 1434 1434 1435 1435